Hauptseite
METAR-TAF:

METAR-TAF

Flughäfen :

Meierwik

Glücksburg, Deutschland

Breite: 54-50N, Länge: 009-30E, Höhe: 27 m

Beobachtung

Neuester Wetterbericht von vor 59 Minuten, um 11:20 UTC
Wind 18 kt aus West
Temperatur 21°C
Luftfeuchtigkeit 53%
Luftdruck 1018 hPa
Sichtweite 10 km oder mehr
Leicht bewölkt in der Höhe von 3500 ft
Durchbrochene Bewölkung in der Höhe von 5500 ft

METAR: ETGG 181120Z 26018KT 9999 FEW035 BKN055 21/11 Q1018 BLU

Zeit: 14:19 (12:19 UTC)


TAF: fehlend

Wetterbeobachtungen und Prognosen von mehr als 4000 Flughäfen (METAR und TAF Bericht).

Die verfügbaren Stationen werden durch gelbe und rote Markierungen auf der Karte dargestellt.

Führen Sie die Maus auf sie, um den Namen der Station zu sehen.

Darauf klicken, um die Beobachtung von Wetterbeobachtungen und Prognosen zu sehen.

Um die Karte zu ändern : klicken Sie auf den grünen Tasten mit einem schwarzen Kreuz Zum Vergrößern, auf den grünen Button mit einem Gedankenstrich zu verkleinern, oder auf die grünen Pfeile für benachbarte Karten.


METAR-TAF: